SL-14 R/B, 20741

Orbit data source: Space-Track

SL-14 R/B, 20741 is space debris in LEO originally from a launch on Wed, 08 Aug 1990 UTC launched from the Plesetsk Missile And Space Complex (PKMTR). Debris objects in space refer to the collection of defunct objects orbiting the Earth. Examples of debris include non-operational satellites, rocket bodies, and fragments generated from explosions, collisions, or faulty payload assembly.

Loading next visibility...
Identifier
20741, 1990-070G
Orbit
LEO
Country
Flag of CISCIS
Related business
Manufacturer
Yuzhnoe
Mission
Spacecraft
Bus & Motor
S5M, Unknown motor
Mass
1,600 kg wet, 1,600 kg dry
Launch date (UTC)
1990-08-08 (36 years ago)
Launch vehicle
Unknown
Launch site
Plesetsk Missile And Space Complex (PKMTR)
Object type
Payload
Rocket body
Debris
Shape & HBR
Cyl, 1.4 m
Radar Cross Section
7.351 m², Large (>1 m²)

Expand to show TLE details & history
Last TLE update: 14 hours ago

TLE from 14 hours ago
0 SL-14 R/B
1 20741U 90070G   26126.33200657  .00000017  00000-0  36623-4 0  9995
2 20741  82.5735  96.6416 0036317 149.3636   6.5710 12.55717580638276
Epoch: 2026-05-06T07:58Z
TLE epoch observation values (Epoch: 2026-05-06T07:58:05.367Z)
Latitude
23.82469°
Longitude
-70.35807°
Altitude
1,415.184 km
Speed
7.168 km/s
True Right ascension
18h 13m 25s
True Declination
23° 42' 31"
Sunlit
Object was in daylight at epoch
Visualization orbit readout
Latitude
Unknown
Longitude
Unknown
Altitude
Unknown
Speed
Unknown
Apparent Right ascension
Unknown
Apparent Declination
Unknown
Sunlit
N/A
Visualization observer readout
Local Sidereal Time
06:12:41
Azimuth
Unknown
Elevation
Unknown
Doppler factor
Unknown
Orbital elements
Apogee altitude
1,466.387 km
Perigee altitude
1,409.615 km
Semi-major axis
7,816.138 km
Eccentricity
0.00363
Inclination
82.5735°
RAAN
96.6416°
Arg. of periapsis
149.3636°
True anomaly
6.61884°
Mean anomaly
6.571°
Eccentric anomaly
6.5949°
Mean motion
3.14091 °/min
Orbital period
114.62 mins
BSTAR
0.000036623
Loading maneuver chart data...
Computing Atmospheric mass density...
Loading historical data...
Loading historical data...
Loading historical data...
Loading historical data...
Loading historical data...
Loading historical data...
Loading historical data...

Documentation

Showing up to 5 results
|